SCP
1 1 1 1 1 0 0 0 0 0 0 0 0 0 0 0 0 0 0 0 1 0 0 0 0 0 0 0 1 1 1 1 1 1 1 1 1 1 2 2 3 3 3 2 1 1 2 2 2
1 1 1 1 0 0 0 0 0 0 0 0 0 0 0 0 0 0 0 1 1 0 0 0 0 0 0 0 1 1 1 1 1 1 1 1 1 2 2 2 3 3 3 2 1 1 2 2 2
1 1 1 1 0 0 0 1 1 0 0 0 0 0 0 0 0 0 0 1 0 0 0 1 1 0 0 1 1 1 0 0 0 1 1 1 1 2 2 2 3 3 2 2 1 1 1 1 1
1 1 1 1 0 0 0 1 1 1 0 0 0 0 0 0 0 0 0 1 0 0 0 1 1 0 0 1 1 1 1 1 1 1 1 1 1 1 1 2 2 2 2 1 1 1 1 1 1
2 1 1 0 0 0 0 1 1 1 0 0 0 0 0 0 0 0 0 0 0 0 0 0 1 1 1 1 1 1 1 1 1 1 1 1 1 1 2 2 2 2 2 1 2 1 1 1 1
3 2 1 1 0 0 0 1 1 1 0 0 0 0 0 0 0 0 0 0 0 0 0 0 1 1 1 1 1 1 1 1 1 1 1 1 1 2 2 2 2 2 2 2 2 1 1 1 1
3 2 1 1 0 0 0 1 1 1 1 0 0 0 0 0 0 0 0 0 0 0 0 0 1 1 1 1 1 1 1 1 1 1 1 1 1 2 3 3 2 2 2 2 1 1 1 1 1
2 2 1 1 0 1 1 1 1 1 1 1 1 0 0 0 1 1 1 0 0 0 0 0 0 0 0 1 1 1 1 1 1 1 1 1 1 2 2 2 2 2 2 2 1 1 1 1 1
2 1 1 1 0 1 2 2 1 1 1 1 1 1 1 1 1 1 1 1 0 0 0 0 0 0 0 1 1 1 1 1 1 1 1 1 1 1 1 2 2 2 2 2 2 2 2 2 1
1 1 1 0 1 2 3 3 2 2 2 1 1 1 1 1 1 1 1 1 0 0 0 0 0 0 0 0 1 1 1 1 1 1 1 1 1 1 1 1 2 2 2 2 2 2 2 2 2
1 1 1 1 2 3 4 3 2 2 2 1 1 1 1 1 1 1 1 0 0 0 0 0 0 0 0 0 1 1 1 1 1 0 0 0 0 1 1 1 2 2 2 2 2 2 2 2 2
1 1 2 3 3 4 3 2 2 2 2 1 1 1 1 1 1 0 0 0 0 0 0 0 0 0 0 1 1 1 1 1 1 0 0 0 0 1 1 1 2 2 1 1 1 1 1 1 1
1 1 3 3 3 3 2 2 2 2 2 1 1 1 1 1 1 1 1 1 1 1 0 0 0 1 1 1 1 1 1 1 1 1 1 1 1 1 1 1 1 1 1 1 1 1 1 1 1
1 2 3 3 2 2 1 1 1 2 2 1 1 1 1 1 1 1 1 1 1 1 1 1 1 1 1 1 1 1 1 1 1 1 1 1 1 1 1 1 1 1 1 1 1 1 1 1 1
1 2 2 2 1 1 1 1 1 2 2 1 1 1 1 1 1 1 1 1 1 1 1 1 1 1 1 1 1 1 1 1 1 1 1 1 1 1 1 1 1 1 1 1 1 1 1 1 1
1 1 1 1 1 1 0 1 1 1 2 1 1 1 1 1 1 1 1 1 1 1 1 1 1 1 1 1 1 1 1 1 1 1 1 1 1 2 1 1 1 1 1 1 1 1 1 1 1
0 0 1 1 1 1 0 1 1 1 2 2 1 1 1 1 1 1 1 1 1 1 1 1 1 1 1 1 1 1 1 1 1 1 1 1 1 2 2 1 1 1 1 1 1 1 1 1 1
0 0 1 1 1 1 0 1 1 1 2 2 2 1 1 1 1 1 1 1 1 1 1 1 1 1 2 1 1 1 1 1 1 0 1 1 1 2 2 2 2 1 1 1 1 1 1 1 1
0 0 1 1 1 1 0 1 1 2 2 2 2 1 1 1 1 1 1 1 1 1 1 1 2 2 2 2 2 1 1 1 1 1 1 1 1 2 2 2 2 1 1 1 1 1 1 1 1
0 0 1 1 1 1 1 1 1 2 3 3 2 1 1 1 1 1 2 2 2 2 2 2 2 2 2 2 2 2 1 1 1 1 1 1 1 2 2 2 1 1 1 1 1 1 1 1 1
0 0 1 1 1 1 1 1 1 2 3 3 2 2 2 2 1 2 2 3 2 2 2 2 2 2 2 3 3 2 2 1 1 1 1 1 1 1 2 1 1 1 1 1 1 1 1 1 1
0 0 1 1 1 1 1 1 1 2 3 4 3 2 2 2 2 2 3 3 2 2 2 2 2 2 2 3 3 3 3 2 1 1 1 1 1 1 1 1 1 1 1 1 1 1 2 2 2
0 0 0 1 1 1 0 1 1 2 3 3 3 2 2 2 2 2 2 2 2 2 3 3 2 2 2 2 3 3 3 2 1 1 1 1 1 1 2 1 1 1 1 1 1 2 2 2 2
0 0 0 0 0 0 0 1 2 3 3 3 2 2 2 2 2 2 2 2 2 3 4 3 3 3 2 2 3 3 3 3 2 2 2 2 2 2 2 2 1 1 1 1 2 2 2 2 3
0 0 0 0 0 0 0 1 2 2 2 3 3 3 3 2 2 2 2 2 2 4 4 3 3 3 3 3 2 3 3 3 3 3 3 2 2 2 2 2 2 1 1 1 2 2 2 3 3
0 0 0 0 0 0 0 1 1 1 2 3 4 4 3 2 2 1 2 2 3 4 4 4 4 4 4 3 2 2 3 3 3 3 3 3 2 2 2 2 2 1 1 1 2 2 3 4 4
0 0 0 0 0 0 0 1 1 1 2 3 4 4 3 2 2 2 2 2 3 4 4 4 5 5 4 3 3 2 2 3 3 3 3 3 2 2 2 2 1 1 1 1 2 2 3 4 4
0 0 0 0 0 0 0 0 1 1 2 4 4 4 3 3 2 3 3 3 4 4 3 4 4 5 4 3 3 2 2 2 3 3 3 2 2 2 2 2 1 1 1 1 2 2 2 2 2
0 0 0 0 0 0 0 0 1 3 4 4 4 4 3 3 3 3 4 4 4 3 3 3 3 3 3 4 4 3 3 3 3 3 3 2 2 2 2 1 1 1 1 1 1 1 1 1 1
0 0 0 0 0 0 0 0 2 3 5 5 4 4 3 3 3 3 4 4 4 4 3 3 3 2 3 4 4 4 4 3 3 3 2 2 2 2 1 1 1 1 1 1 1 1 1 1 1
Wind_Speed
9 6 3 1 2 3 4 3 5 6 6 8 10 10 8 6 4 4 2 5 6 4 3 5 7 7 8 8 7 7 7 8 8 8 9 8 9 10 11 12 12 13 12 12 11 11 11 10 10
5 5 2 1 3 3 3 4 7 8 8 9 11 11 8 6 5 6 3 5 6 5 3 5 8 8 8 8 8 8 8 8 8 8 8 8 9 10 11 11 12 12 12 11 11 11 10 9 9
5 3 1 2 2 3 4 5 8 9 8 7 6 6 6 4 5 4 6 8 6 5 3 5 9 9 9 8 8 8 9 8 8 8 8 8 8 9 10 10 11 11 11 10 10 10 10 9 8
2 1 2 3 3 2 6 6 8 9 8 8 8 7 4 4 4 6 9 9 7 5 4 5 10 9 9 9 9 8 8 8 8 8 8 8 8 8 9 9 9 9 9 9 9 9 8 8 8
2 2 3 2 3 4 5 7 8 8 6 8 10 8 5 4 9 10 9 9 8 5 3 5 9 9 8 9 9 9 9 8 8 8 8 7 7 8 8 9 9 9 8 8 8 8 7 7 7
2 2 3 2 4 6 5 6 8 12 11 10 10 8 3 5 9 8 9 8 7 6 4 4 8 9 8 9 9 9 9 8 8 7 7 6 7 8 8 8 8 8 8 7 7 6 7 7 6
2 2 1 3 4 5 6 6 8 9 10 7 7 6 3 4 6 8 8 7 7 6 4 3 3 5 7 8 8 8 9 8 7 7 7 6 7 8 7 7 7 7 7 6 6 5 5 6 5
3 2 1 2 5 5 6 6 7 10 8 8 6 7 5 5 7 8 8 7 6 5 4 3 2 2 2 3 7 8 8 7 7 7 7 7 7 7 7 6 6 6 5 5 4 4 5 5 5
2 3 1 3 4 4 6 8 6 7 10 6 6 7 8 9 9 9 7 6 5 5 3 3 3 2 2 2 5 5 6 5 5 5 7 6 2 2 3 4 5 6 5 4 3 2 3 4 4
4 3 5 5 5 5 7 9 7 7 9 8 9 10 10 10 10 9 8 6 5 5 3 3 3 2 2 2 2 1 2 2 2 2 3 2 2 2 2 2 4 5 5 3 3 3 2 2 2
4 4 3 2 4 6 7 7 6 10 7 9 13 13 11 9 8 8 7 6 6 5 5 3 3 3 2 2 2 1 1 1 2 3 2 2 2 1 2 1 1 2 2 2 3 2 2 2 2
4 2 3 3 5 5 6 6 6 7 8 12 13 13 11 10 8 7 7 6 6 6 4 3 3 3 2 2 2 1 1 1 2 2 3 2 2 2 2 2 2 1 1 2 1 1 2 2 2
3 2 3 4 5 6 7 8 8 8 12 13 13 12 11 10 7 6 7 7 6 5 4 4 3 3 2 2 1 2 1 2 2 2 2 3 2 2 2 2 2 1 1 1 1 1 1 1 1
4 3 2 4 6 6 9 7 7 9 13 13 12 10 10 10 9 7 6 6 6 5 4 4 4 3 3 2 2 2 2 2 2 2 3 3 2 3 2 2 2 2 1 1 1 2 1 1 1
2 3 2 2 5 5 9 5 7 11 13 12 11 11 10 9 9 9 8 8 7 6 5 4 4 3 3 3 2 2 2 2 2 2 2 3 3 3 3 2 1 1 1 1 1 2 1 1 1
3 3 0 3 5 5 9 5 7 11 12 11 10 10 10 8 9 9 9 7 7 6 5 4 5 4 3 2 2 2 2 2 2 1 2 3 3 3 3 2 1 1 1 1 1 1 1 1 1
3 0 2 3 3 4 6 6 8 10 11 10 10 10 10 9 7 8 9 8 7 7 6 5 4 4 3 2 1 1 1 1 1 1 2 2 2 2 2 1 1 1 1 1 1 1 1 1 1
3 2 3 4 4 4 4 5 8 10 11 11 9 9 10 11 9 9 9 8 7 7 6 6 4 4 3 2 1 1 2 1 1 1 1 1 1 2 2 1 1 1 2 1 1 1 1 1 0
4 2 3 4 4 4 5 6 9 9 9 9 8 9 10 9 8 9 9 9 8 6 6 6 5 4 3 2 1 1 0 0 0 0 1 1 1 1 2 1 1 1 1 1 1 1 1 1 1
3 2 2 1 2 4 5 4 7 9 11 12 12 11 11 8 7 9 9 8 8 7 7 6 6 4 3 2 2 2 2 1 1 0 0 1 1 1 2 2 1 1 1 1 1 1 1 0 0
4 4 5 3 1 4 6 1 2 4 5 7 9 10 11 13 12 11 10 8 8 8 8 7 6 5 4 3 2 1 2 1 1 1 0 1 1 1 1 2 2 1 1 1 1 1 2 1 1
3 4 4 4 3 1 4 2 4 4 4 6 7 8 10 11 11 10 10 9 9 8 7 6 6 5 4 4 3 3 2 2 2 1 1 1 1 1 1 1 2 1 1 1 1 1 1 1 1
5 2 3 3 3 2 2 4 5 2 4 6 8 10 11 12 12 12 11 11 9 8 7 6 6 5 4 4 4 4 3 2 1 1 1 1 1 1 1 1 2 1 1 1 0 1 1 1 1
2 3 5 5 5 2 3 4 5 5 9 8 9 10 11 11 11 10 9 8 7 7 7 6 6 5 5 4 4 4 4 3 2 1 1 1 0 0 0 1 1 1 1 1 1 1 1 1 1
3 5 5 6 5 3 3 1 7 6 8 10 11 11 11 11 11 10 9 9 9 9 8 7 7 6 5 5 4 4 4 4 3 3 2 1 1 1 1 1 1 1 1 1 1 1 1 0 0
2 7 7 3 3 3 4 2 6 4 5 7 8 9 10 10 10 10 11 11 11 10 9 8 7 6 5 5 5 4 4 3 2 3 2 2 2 2 2 1 1 1 1 1 1 1 1 0 0
1 1 7 8 2 1 3 3 6 3 2 2 5 8 9 10 9 9 9 10 10 10 10 9 8 6 5 5 5 4 4 3 3 3 2 1 1 1 1 1 1 1 1 1 1 1 1 0 0
5 5 6 5 4 1 2 3 4 3 1 1 3 6 8 8 8 7 7 8 9 9 8 8 8 7 6 5 5 4 4 4 3 2 2 2 1 1 1 1 1 1 1 0 1 1 0 0 1
1 2 5 4 5 6 2 6 6 7 5 4 4 5 7 8 8 8 6 6 6 6 7 7 6 5 5 5 4 3 3 3 3 2 2 2 1 1 1 1 1 1 1 1 1 1 1 0 1
3 4 6 5 2 4 4 7 5 5 4 5 4 4 5 6 6 6 5 5 5 5 6 6 6 5 5 4 3 3 3 3 3 3 2 2 2 2 1 1 1 1 1 1 1 2 1 1 1
Wind_Direction
169 165 166 179 40 46 64 75 90 76 60 63 74 79 78 62 89 127 187 144 136 134 127 110 104 104 102 102 104 106 109 115 118 117 115 114 115 122 127 129 132 133 134 135 138 141 142 141 139
163 167 172 35 66 71 60 84 84 87 114 107 84 81 77 70 85 113 132 147 135 131 119 111 106 101 99 98 100 102 106 112 119 121 121 121 120 123 128 131 133 136 138 140 141 144 146 146 144
178 180 129 55 73 121 111 109 108 99 100 91 83 65 67 89 105 131 153 145 129 121 117 116 106 100 95 94 96 100 106 113 119 121 124 125 123 126 130 133 135 138 142 144 146 147 148 149 151
149 105 38 56 80 113 120 127 119 106 85 76 88 72 65 95 119 134 138 135 123 120 121 117 109 102 95 95 98 101 107 114 119 122 126 128 128 131 134 134 139 142 144 146 147 148 151 154 156
117 92 53 50 77 87 106 123 116 103 92 90 91 91 76 76 108 123 129 129 124 118 115 115 110 104 99 99 100 101 106 112 115 117 124 130 135 135 137 140 143 146 148 148 148 150 153 161 163
81 80 70 80 93 92 93 107 106 100 106 105 98 100 90 103 111 118 120 124 123 123 117 113 111 107 104 104 105 105 107 112 116 118 121 128 140 148 149 148 147 149 151 153 157 161 167 175 176
113 91 141 128 109 107 117 115 109 113 110 106 116 99 109 105 119 119 115 114 114 117 110 98 107 108 110 110 109 109 108 109 113 120 124 128 139 152 153 152 156 155 159 164 165 170 182 189 188
157 98 57 111 116 121 133 108 114 117 110 120 113 119 143 152 127 114 105 102 104 106 105 102 92 83 91 107 113 112 108 109 108 111 118 122 131 143 155 159 159 156 162 167 174 189 197 196 192
121 85 153 167 146 150 135 108 95 94 104 101 94 119 141 136 120 108 99 91 98 105 101 98 95 92 97 103 109 112 112 108 106 110 121 120 88 108 145 158 157 157 150 161 171 171 180 185 171
129 140 196 183 165 153 138 125 123 104 99 95 100 112 124 123 120 120 121 119 115 118 118 108 107 110 100 97 87 68 87 83 76 81 98 86 75 76 96 128 140 149 146 141 121 95 92 112 118
153 170 169 151 145 140 129 126 118 122 123 141 138 139 135 126 124 128 131 134 130 129 122 118 120 112 104 84 91 58 55 69 80 84 91 85 71 63 58 58 62 95 110 84 81 68 66 87 111
135 161 144 149 136 124 129 124 113 128 149 149 143 143 138 135 137 138 133 132 123 118 120 114 108 101 95 99 98 89 71 77 85 85 97 101 93 83 86 79 65 64 75 94 78 70 79 101 118
112 142 134 133 120 123 112 115 116 124 135 137 137 139 142 143 141 137 135 130 123 124 122 123 113 99 90 90 94 95 76 89 99 98 102 112 108 103 101 95 88 81 82 90 95 89 87 109 139
164 155 144 132 124 125 113 111 109 138 140 141 143 144 149 150 146 138 136 132 133 135 137 128 113 104 96 92 88 95 96 90 89 92 98 108 110 106 106 94 89 83 87 106 114 107 107 129 132
118 86 17 138 132 134 109 90 139 152 147 146 150 150 149 151 149 152 156 151 150 148 145 137 129 112 100 93 89 91 96 100 94 91 92 107 112 113 111 101 88 72 76 82 84 76 66 80 77
47 63 33 249 154 153 119 158 174 160 152 153 158 156 153 158 159 159 156 150 149 145 142 145 133 116 104 101 95 90 87 94 98 101 100 109 120 122 112 105 112 109 85 77 95 84 64 44 44
18 211 229 256 192 155 132 170 177 167 157 161 166 160 159 160 161 160 161 156 153 151 146 144 135 131 122 108 91 86 88 89 89 92 102 111 108 107 109 112 118 101 83 73 88 77 97 80 26
242 229 235 224 212 148 148 174 173 173 168 170 171 163 164 168 172 167 164 160 156 153 148 149 145 143 136 110 77 52 58 65 69 91 109 103 106 115 111 113 95 96 87 64 68 79 72 105 44
236 200 235 241 200 159 170 168 181 177 173 173 174 171 172 175 172 164 165 161 156 154 150 154 152 158 143 124 123 125 148 232 270 195 133 126 128 118 111 101 87 101 107 118 107 97 69 33 58
247 193 233 256 201 144 154 172 181 180 185 182 177 177 173 164 164 170 168 168 165 166 163 160 165 167 168 171 171 168 166 192 198 237 96 154 149 152 130 130 124 122 109 67 83 111 88 318 84
266 209 203 196 72 71 110 37 204 204 192 185 181 177 171 171 173 175 174 175 170 173 173 171 174 173 176 170 138 107 67 34 25 9 312 252 170 155 146 142 145 152 149 175 200 160 148 220 292
288 249 182 157 110 227 131 160 260 209 201 193 190 176 173 173 173 174 175 177 179 179 173 169 171 173 174 160 149 151 157 179 213 214 221 248 209 168 153 157 157 163 151 172 227 168 164 156 265
239 251 127 126 113 73 58 121 264 195 197 209 200 187 179 174 173 175 178 180 179 176 172 169 168 173 174 160 158 157 167 186 196 190 202 228 240 205 181 160 153 156 152 166 145 115 127 152 175
216 42 47 50 68 38 268 142 244 215 199 198 199 191 180 174 174 176 175 167 167 168 169 170 170 177 173 169 168 166 173 173 169 197 206 228 241 251 233 158 166 176 166 167 157 143 130 147 159
40 74 36 8 16 268 284 137 241 230 203 193 188 184 175 167 171 173 174 172 171 171 172 173 172 176 176 175 182 183 181 175 184 192 192 191 209 224 240 196 190 194 190 172 150 134 160 167 163
230 132 148 175 212 283 338 274 263 244 205 189 176 163 159 163 171 174 180 179 178 178 174 170 169 174 177 182 193 191 179 175 188 195 188 197 205 214 209 183 186 190 176 162 142 142 200 174 248
138 132 159 135 142 75 307 311 319 0 74 140 138 141 158 168 170 173 179 177 175 175 177 173 172 176 181 183 186 186 187 184 193 201 193 205 211 205 176 173 186 202 179 171 146 157 218 137 266
143 150 90 104 134 191 288 264 232 257 214 141 136 146 162 168 167 172 177 180 178 178 176 171 173 180 183 182 185 189 197 197 193 185 186 195 201 195 180 184 180 181 201 158 139 167 214 95 301
20 65 101 115 144 147 206 267 225 202 185 169 169 168 164 162 167 170 171 166 163 165 169 171 172 173 176 184 188 183 192 190 177 179 190 185 181 185 190 186 173 169 197 195 170 206 192 199 290
163 175 143 140 195 151 156 263 282 180 164 148 152 153 154 157 161 155 150 147 150 161 167 166 167 174 185 182 181 188 189 182 183 194 198 192 190 184 181 166 174 202 213 209 196 219 221 217 249